This is the latest recevied weather packets stored in our database for station/object DL1NER. If no packets are shown the sender has not sent any weather packets the latest 10 day(s).
| Time | Temp. | Humidity | Pressure | Rain* | Wind** | Luminosity | Snow |
|---|---|---|---|---|---|---|---|
| 1777473009 | 18.33° C | 25% | 1023.3 hPa | 0 mm | - | 0 W/m² | - |
| 1777472409 | 18.33° C | 25% | 1023.4 hPa | 0 mm | - | 0 W/m² | - |
| 1777471814 | 18.33° C | 25% | 1023.4 hPa | 0 mm | - | 0 W/m² | - |
| 1777471214 | 18.33° C | 24% | 1023.4 hPa | 0 mm | - | 0 W/m² | - |
| 1777470614 | 18.33° C | 24% | 1023.6 hPa | 0 mm | - | 0 W/m² | - |
| 1777470014 | 18.33° C | 25% | 1023.3 hPa | 0 mm | - | 0 W/m² | - |
| 1777469414 | 18.89° C | 25% | 1023.5 hPa | 0 mm | - | 0 W/m² | - |
| 1777468814 | 18.33° C | 24% | 1023.4 hPa | 0 mm | - | 0 W/m² | - |
| 1777468213 | 18.33° C | 25% | 1023.4 hPa | 0 mm | - | 0 W/m² | - |
| 1777467614 | 18.33° C | 25% | 1023.4 hPa | 0 mm | - | 0 W/m² | - |
| 1777467014 | 18.33° C | 30% | 1023.5 hPa | 0 mm | - | 0 W/m² | - |
| 1777466414 | 17.78° C | 27% | 1023.5 hPa | 0 mm | - | 0 W/m² | - |
| 1777465814 | 17.78° C | 26% | 1023.4 hPa | 0 mm | - | 0 W/m² | - |
| 1777465213 | 17.78° C | 24% | 1023.6 hPa | 0 mm | - | 0 W/m² | - |
| 1777464613 | 17.78° C | 24% | 1023.7 hPa | 0 mm | - | 0 W/m² | - |
| 1777464014 | 17.78° C | 29% | 1023.7 hPa | 0 mm | - | 0 W/m² | - |
| 1777463414 | 17.78° C | 28% | 1023.8 hPa | 0 mm | - | 0 W/m² | - |
| 1777462813 | 17.22° C | 25% | 1023.9 hPa | 0 mm | - | 0 W/m² | - |
| 1777462213 | 17.22° C | 27% | 1023.9 hPa | 0 mm | - | 0 W/m² | - |
| 1777461613 | 16.67° C | 27% | 1024 hPa | 0 mm | - | 0 W/m² | - |
| 1777461013 | 17.22° C | 26% | 1023.9 hPa | 0 mm | - | 0 W/m² | - |
| 1777460413 | 16.67° C | 31% | 1023.9 hPa | 0 mm | - | 0 W/m² | - |
| 1777459813 | 16.67° C | 27% | 1023.9 hPa | 0 mm | - | 0 W/m² | - |
| 1777459213 | 16.67° C | 28% | 1024 hPa | 0 mm | - | 0 W/m² | - |
| 1777458613 | 16.11° C | 29% | 1024 hPa | 0 mm | - | 0 W/m² | - |
* Rain latest hour (hover to see other rain measurements)
** Current wind speed in m/s (hover to see current wind gust speed)